SL-8 DEB, 21170

Orbit data source: Space-Track

SL-8 DEB, 21170 is space debris in LEO originally from a launch on Tue, 12 Feb 1991 UTC launched from the Plesetsk Missile And Space Complex (PKMTR). Debris objects in space refer to the collection of defunct objects orbiting the Earth. Examples of debris include non-operational satellites, rocket bodies, and fragments generated from explosions, collisions, or faulty payload assembly.

Loading next visibility...
Identifier
21170, 1991-009AH
Orbit
LEO
Country
Flag of CISCIS
Related business
Manufacturer
Unknown
Mission
Spacecraft
Bus & Motor
Unknown
Mass
Unknown
Launch date (UTC)
1991-02-12 (35 years ago)
Launch vehicle
Unknown
Launch site
Plesetsk Missile And Space Complex (PKMTR)
Object type
Payload
Rocket body
Debris
Shape & HBR
Unknown shape, 0.3 m
Radar Cross Section
Medium (>0.1 m² and <1 m²)

Expand to show TLE details & history
Last TLE update: 2 days ago

TLE from 2 days ago
0 SL-8 DEB
1 21170U 91009AH  26171.27557516 -.00000195  00000-0 -18564-2 0  9998
2 21170  74.1111 108.8610 0150959  83.9710  44.6665 12.12970770562683
Epoch: 2026-06-20T06:36Z
TLE epoch observation values (Epoch: 2026-06-20T06:36:49.693Z)
Latitude
47.6716°
Longitude
-96.9574°
Altitude
1,545.28 km
Speed
7.136 km/s
True Right ascension
18h 02m 58s
True Declination
47° 31' 03"
Sunlit
Object was in daylight at epoch
Visualization orbit readout
Latitude
Unknown
Longitude
Unknown
Altitude
Unknown
Speed
Unknown
Apparent Right ascension
Unknown
Apparent Declination
Unknown
Sunlit
N/A
Visualization observer readout
Local Sidereal Time
23:21:47
Azimuth
Unknown
Elevation
Unknown
Doppler factor
Unknown
Orbital elements
Apogee altitude
1,741.934 km
Perigee altitude
1,500.42 km
Semi-major axis
7,999.314 km
Eccentricity
0.0151
Inclination
74.1111°
RAAN
108.861°
Arg. of periapsis
83.971°
True anomaly
45.89899°
Mean anomaly
44.6665°
Eccentric anomaly
45.28109°
Mean motion
3.03364 °/min
Orbital period
118.67 mins
BSTAR
-0.0018564
Loading maneuver chart data...
Computing Atmospheric mass density...
Loading historical data...
Loading historical data...
Loading historical data...
Loading historical data...
Loading historical data...
Loading historical data...
Loading historical data...

Documentation

Showing up to 5 results
|